Back to catalog

KINEIS-3B

AliveCommunicationsSSO
NORAD 61224·PAYLOAD·🇫🇷 France

Launched Sep 20, 2024 from Rocket Lab Launch Complex 1

Loading…

Next Passes (next 24 hours)

TLE

FreshSource: Space-Track

Epoch: Sep 14, 2026, 04:19 UTC

1 61224U 24172E   26257.18042917  .00001292  00000-0  21211-3 0  9999
2 61224  98.0397 346.2257 0002964 125.9822 234.1661 14.72323710106440

Track KINEIS-3B in real time with AllMySat

Download on the App Store